When you browse on this site, cookies collect data to enhance your experience and personalize the content and advertising you see.
Visit our Privacy Policy to learn more. By continuing to use the site, you agree to this use of cookies and data.
  • In United Kingdom
  • List of Countries
  • For 7 days
  • Water Temperature
  • Satellite Maps
  • Weather Map
  • Weather Widgets
  • user-avatar
    Login

    Hourly Weather Santa Maria Coyotepec

    Today, 19 March, Tuesday

    Time Temperature Precipitation Wind Pressure Humidity
    00:00 +18°C° 0.1 mm 1 mps 630 mmHg 82%
    01:00 +18°C° 0 mm 1 mps 630 mmHg 83%
    02:00 +18°C° 0 mm 1 mps 629 mmHg 83%
    03:00 +16°C° 0 mm 1 mps 629 mmHg 83%
    04:00 +16°C° 0 mm 1 mps 629 mmHg 84%
    05:00 +16°C° 0 mm 1 mps 629 mmHg 85%
    06:00 +15°C° 0 mm 1 mps 629 mmHg 86%
    07:00 +18°C° 0 mm 1 mps 630 mmHg 78%
    08:00 +19°C° 0 mm 1 mps 631 mmHg 71%
    09:00 +21°C° 0 mm 1 mps 632 mmHg 64%
    10:00 +23°C° 0 mm 1 mps 632 mmHg 56%
    11:00 +25°C° 0 mm 1 mps 633 mmHg 48%
    12:00 +25°C° 0 mm 0 mps 634 mmHg 40%
    13:00 +27°C° 0 mm 1 mps 633 mmHg 39%
    14:00 +27°C° 0 mm 1 mps 632 mmHg 38%
    15:00 +27°C° 0 mm 2 mps 631 mmHg 37%
    16:00 +26°C° 0.1 mm 2 mps 631 mmHg 43%
    17:00 +25°C° 0.1 mm 2 mps 631 mmHg 49%
    18:00 +24°C° 0.1 mm 2 mps 630 mmHg 55%
    19:00 +21°C° 0.1 mm 2 mps 630 mmHg 61%
    20:00 +20°C° 0.1 mm 2 mps 630 mmHg 68%
    21:00 +19°C° 0.1 mm 2 mps 631 mmHg 75%
    22:00 +18°C° 0 mm 2 mps 631 mmHg 77%
    23:00 +18°C° 0 mm 2 mps 631 mmHg 79%

    Tomorrow, 20 March, Wednesday

    Time Temperature Precipitation Wind Pressure Humidity
    00:00 +17°C° 0 mm 2 mps 631 mmHg 81%
    01:00 +18°C° 0 mm 1 mps 630 mmHg 82%
    02:00 +18°C° 0 mm 1 mps 630 mmHg 83%
    03:00 +16°C° 0 mm 1 mps 629 mmHg 84%
    04:00 +16°C° 0 mm 1 mps 629 mmHg 86%
    05:00 +15°C° 0 mm 1 mps 629 mmHg 87%
    06:00 +15°C° 0 mm 1 mps 629 mmHg 89%
    07:00 +18°C° 0 mm 1 mps 630 mmHg 81%
    08:00 +19°C° 0 mm 1 mps 631 mmHg 73%
    09:00 +21°C° 0 mm 1 mps 632 mmHg 64%
    10:00 +23°C° 0 mm 1 mps 632 mmHg 55%
    11:00 +25°C° 0 mm 1 mps 633 mmHg 47%
    12:00 +27°C° 0 mm 1 mps 633 mmHg 38%
    13:00 +27°C° 0 mm 1 mps 632 mmHg 38%
    14:00 +27°C° 0 mm 2 mps 632 mmHg 38%
    15:00 +27°C° 0 mm 2 mps 631 mmHg 38%
    16:00 +25°C° 0.1 mm 2 mps 631 mmHg 44%
    17:00 +24°C° 0.1 mm 2 mps 630 mmHg 50%
    18:00 +23°C° 0.1 mm 2 mps 630 mmHg 56%
    19:00 +21°C° 0.2 mm 2 mps 630 mmHg 62%
    20:00 +20°C° 0.2 mm 2 mps 631 mmHg 67%
    21:00 +19°C° 0.2 mm 2 mps 631 mmHg 73%
    22:00 +19°C° 0.1 mm 2 mps 631 mmHg 75%
    23:00 +18°C° 0.1 mm 2 mps 631 mmHg 78%

    Day after tomorrow, 21 March, Thursday

    Time Temperature Precipitation Wind Pressure Humidity
    00:00 +19°C° 0.1 mm 1 mps 631 mmHg 81%
    01:00 +18°C° 0 mm 1 mps 630 mmHg 82%
    02:00 +18°C° 0 mm 1 mps 630 mmHg 84%
    03:00 +16°C° 0 mm 1 mps 629 mmHg 85%
    04:00 +16°C° 0 mm 1 mps 629 mmHg 86%
    05:00 +16°C° 0 mm 1 mps 629 mmHg 87%
    06:00 +15°C° 0 mm 1 mps 629 mmHg 88%
    07:00 +18°C° 0 mm 1 mps 630 mmHg 80%
    08:00 +18°C° 0 mm 2 mps 631 mmHg 72%
    09:00 +19°C° 0 mm 2 mps 632 mmHg 65%
    10:00 +21°C° 0 mm 2 mps 632 mmHg 56%
    11:00 +24°C° 0 mm 2 mps 633 mmHg 48%
    12:00 +26°C° 0 mm 2 mps 633 mmHg 40%
    13:00 +26°C° 0 mm 2 mps 632 mmHg 40%
    14:00 +27°C° 0 mm 3 mps 632 mmHg 39%
    15:00 +27°C° 0 mm 3 mps 631 mmHg 38%
    16:00 +26°C° 0.1 mm 3 mps 631 mmHg 43%
    17:00 +24°C° 0.1 mm 3 mps 631 mmHg 49%
    18:00 +23°C° 0.1 mm 2 mps 630 mmHg 54%
    19:00 +21°C° 0.1 mm 2 mps 631 mmHg 59%
    20:00 +20°C° 0.1 mm 2 mps 631 mmHg 65%
    21:00 +19°C° 0.1 mm 2 mps 631 mmHg 70%
    22:00 +18°C° 0 mm 2 mps 631 mmHg 73%
    23:00 +18°C° 0 mm 2 mps 631 mmHg 75%

    22 March, Friday

    Time Temperature Precipitation Wind Pressure Humidity
    00:00 +17°C° 0 mm 2 mps 631 mmHg 78%
    01:00 +16°C° 0 mm 2 mps 630 mmHg 80%
    02:00 +16°C° 0 mm 1 mps 630 mmHg 81%
    03:00 +15°C° 0 mm 1 mps 629 mmHg 83%
    04:00 +15°C° 0 mm 1 mps 629 mmHg 83%
    05:00 +15°C° 0 mm 1 mps 629 mmHg 83%
    06:00 +15°C° 0 mm 1 mps 629 mmHg 83%
    07:00 +16°C° 0 mm 1 mps 630 mmHg 75%
    08:00 +19°C° 0 mm 1 mps 631 mmHg 68%
    09:00 +21°C° 0 mm 1 mps 632 mmHg 60%
    10:00 +23°C° 0 mm 1 mps 632 mmHg 53%
    11:00 +25°C° 0 mm 2 mps 633 mmHg 46%
    12:00 +27°C° 0 mm 2 mps 633 mmHg 39%
    13:00 +27°C° 0.1 mm 2 mps 632 mmHg 39%
    14:00 +27°C° 0.1 mm 2 mps 631 mmHg 39%
    15:00 +27°C° 0.1 mm 2 mps 631 mmHg 39%
    16:00 +25°C° 0.2 mm 2 mps 630 mmHg 44%
    17:00 +24°C° 0.2 mm 2 mps 630 mmHg 49%
    18:00 +23°C° 0.2 mm 2 mps 630 mmHg 54%
    19:00 +21°C° 0.2 mm 2 mps 630 mmHg 59%
    20:00 +21°C° 0.2 mm 1 mps 630 mmHg 65%
    21:00 +20°C° 0.2 mm 1 mps 631 mmHg 71%
    22:00 +19°C° 0 mm 1 mps 630 mmHg 75%
    23:00 +18°C° 0 mm 1 mps 630 mmHg 79%

    23 March, Saturday

    Time Temperature Precipitation Wind Pressure Humidity
    00:00 +16°C° 0 mm 1 mps 630 mmHg 84%
    01:00 +15°C° 0 mm 0 mps 629 mmHg 86%
    02:00 +14°C° 0 mm 0 mps 628 mmHg 87%
    03:00 +14°C° 0 mm 0 mps 628 mmHg 89%
    04:00 +14°C° 0 mm 0 mps 628 mmHg 90%
    05:00 +14°C° 0 mm 0 mps 628 mmHg 90%
    06:00 +13°C° 0 mm 0 mps 628 mmHg 90%
    07:00 +16°C° 0 mm 0 mps 629 mmHg 80%
    08:00 +18°C° 0 mm 0 mps 631 mmHg 70%
    09:00 +21°C° 0 mm 0 mps 632 mmHg 60%
    10:00 +24°C° 0 mm 1 mps 632 mmHg 51%
    11:00 +26°C° 0 mm 1 mps 632 mmHg 42%
    12:00 +28°C° 0 mm 2 mps 632 mmHg 33%
    13:00 +28°C° 0 mm 2 mps 632 mmHg 33%
    14:00 +27°C° 0 mm 2 mps 631 mmHg 34%
    15:00 +27°C° 0 mm 2 mps 630 mmHg 34%
    16:00 +26°C° 0 mm 2 mps 630 mmHg 37%
    17:00 +26°C° 0 mm 2 mps 630 mmHg 40%
    18:00 +25°C° 0 mm 2 mps 629 mmHg 44%
    19:00 +23°C° 0 mm 2 mps 630 mmHg 51%
    20:00 +21°C° 0 mm 2 mps 630 mmHg 58%
    21:00 +20°C° 0 mm 1 mps 630 mmHg 65%
    22:00 +19°C° 0 mm 1 mps 629 mmHg 70%
    23:00 +18°C° 0 mm 1 mps 629 mmHg 75%

    24 March, Sunday

    Time Temperature Precipitation Wind Pressure Humidity
    00:00 +16°C° 0 mm 0 mps 629 mmHg 80%
    01:00 +15°C° 0 mm 0 mps 628 mmHg 82%
    02:00 +15°C° 0 mm 0 mps 628 mmHg 84%
    03:00 +14°C° 0 mm 0 mps 627 mmHg 86%
    04:00 +14°C° 0 mm 0 mps 627 mmHg 86%
    05:00 +14°C° 0 mm 0 mps 628 mmHg 87%
    06:00 +14°C° 0 mm 0 mps 628 mmHg 87%
    07:00 +16°C° 0 mm 0 mps 629 mmHg 76%
    08:00 +19°C° 0 mm 0 mps 630 mmHg 66%
    09:00 +21°C° 0 mm 0 mps 631 mmHg 55%
    10:00 +23°C° 0 mm 0 mps 631 mmHg 47%
    11:00 +27°C° 0 mm 1 mps 632 mmHg 39%
    12:00 +29°C° 0 mm 1 mps 632 mmHg 31%
    13:00 +30°C° 0 mm 1 mps 631 mmHg 29%
    14:00 +30°C° 0 mm 1 mps 631 mmHg 28%
    15:00 +30°C° 0 mm 1 mps 630 mmHg 26%
    16:00 +29°C° 0 mm 2 mps 630 mmHg 30%
    17:00 +28°C° 0 mm 2 mps 630 mmHg 33%
    18:00 +27°C° 0 mm 2 mps 629 mmHg 37%
    19:00 +25°C° 0 mm 2 mps 629 mmHg 44%
    20:00 +23°C° 0 mm 2 mps 629 mmHg 51%
    21:00 +21°C° 0 mm 1 mps 629 mmHg 58%
    22:00 +21°C° 0 mm 1 mps 629 mmHg 62%
    23:00 +18°C° 0 mm 0 mps 628 mmHg 66%
    Show more